Location: Duault
(48.3610°N, 3.4360°W)
Time: 09:25:17
(UTC+00:00)

Daily predictions for brighter satellites

Satellite Brightness Start Highest point End
(mag) Time Altitude Azimuth Time Altitude Azimuth Time Altitude Azimuth
Cosmos 2279 Rocket 4.1 20:36:01 10° N 20:42:15 68° E 20:48:25 10° SSE
Cosmos 1850 Rocket 4.2 20:37:56 10° NNW 20:43:18 68° ENE 20:48:37 10° SSE
STARLINK-1121 4.0 20:40:45 10° WNW 20:44:53 65° NNE 20:49:01 10° ESE
Cosmos 371 Rocket 3.3 20:40:08 10° S 20:44:56 65° ESE 20:49:47 10° NNE
SPOT 3 Rocket 4.1 20:40:17 10° S 20:45:21 59° WSW 20:50:29 10° NNW
STARLINK-1244 3.6 20:41:46 10° WSW 20:45:54 78° SSE 20:50:03 10° ENE
STARLINK-1071 4.2 20:43:33 10° WNW 20:47:33 48° SW 20:51:32 10° SE
Abrixas rocket 2.0 20:45:32 10° W 20:48:28 64° SSW 20:51:23 10° ESE
Cosmos 2151 Rocket 3.7 20:44:28 10° N 20:49:01 67° ENE 20:53:31 10° SSE
Terra 3.5 20:45:34 10° ESE 20:49:01 20° ENE 20:52:28 10° NNE
STARLINK-1106 3.9 20:45:45 10° WNW 20:49:54 68° NNE 20:54:01 10° ESE
Spot 2 Rocket 3.7 20:45:02 10° SSE 20:49:56 57° ENE 20:54:54 10° N
ERBS 3.6 20:47:05 10° WSW 20:50:16 45° NNW 20:53:29 10° NE
STARLINK-1138 3.6 20:46:44 10° WSW 20:50:52 83° SSE 20:55:02 10° ENE
SPOT 1/Viking Rocket 4.1 20:46:01 10° SE 20:50:53 43° ENE 20:55:44 10° N
STARLINK-1110 4.3 20:47:21 10° WNW 20:51:19 45° SW 20:55:16 10° SE
H-2A R/B 4.5 20:50:58 10° SW 20:54:41 20° W 20:58:29 10° NW
STARLINK-1112 3.8 20:50:43 10° WNW 20:54:51 71° NNE 20:59:00 10° ESE
CZ-2C R/B 4.4 20:51:00 10° N 20:55:25 59° WNW 20:59:53 10° SSW
STARLINK-1143 3.6 20:51:41 10° WSW 20:55:50 88° SSE 21:00:00 10° ENE
STARLINK-1124 4.4 20:53:33 10° WNW 20:57:28 41° SW 21:01:22 10° SSE
STARLINK-1128 3.8 20:55:41 10° WNW 20:59:50 75° NNE 21:03:59 10° ESE
STARLINK-1241 3.7 20:56:42 10° WSW 21:00:51 88° NW 21:05:01 10° ENE
deb Kosmos-1763 4.3 21:00:02 10° NNW 21:03:35 56° ENE 21:06:57 11° SE
Cosmos 1300 Rocket 3.9 20:59:24 10° NNW 21:03:51 71° W 21:08:14 10° S
Aureole 2 Rocket 2.6 21:01:47 10° S 21:04:44 39° ESE 21:07:32 10° NE
STARLINK-1113 3.7 21:00:40 10° WNW 21:04:50 78° NNE 21:08:59 10° ESE
STARLINK-1239 3.7 21:01:40 10° WSW 21:05:49 83° NNW 21:09:59 10° ENE
STARLINK-1119 3.7 21:05:41 10° WNW 21:09:50 83° NNE 21:14:00 10° ESE
Cosmos 1437 Rocket 2.6 21:06:06 10° S 21:09:52 69° E 21:13:41 10° NNE
STARLINK-1240 3.8 21:06:38 10° WSW 21:10:47 79° NNW 21:14:57 10° ENE
Cosmos 1378 4.3 21:09:41 11° SE 21:12:35 26° E 21:15:44 10° NNE
ISS -1.9 21:11:53 10° W 21:14:29 21° SW 21:17:02 10° S
STARLINK-1114 3.6 21:10:38 10° WNW 21:14:48 87° NNE 21:18:49 11° ESE
STARLINK-1203 3.9 21:11:28 10° WSW 21:15:40 75° NNW 21:19:53 10° ENE
STARLINK-1216 3.8 21:11:37 10° WSW 21:15:46 75° NNW 21:19:55 10° ENE
Meteor 1-15 Rocket 4.4 21:10:04 10° N 21:16:02 75° ENE 21:21:56 10° SSE
Cosmos 304 Rocket 3.8 21:11:38 10° S 21:16:20 62° ESE 21:21:05 10° NNE
Lacrosse 5 3.1 21:13:06 10° WNW 21:17:32 31° SW 21:21:56 10° S
NOSS 8 (E) 4.1 21:14:22 10° SW 21:17:34 89° WNW 21:20:39 10° NE
USA 215 4.4 21:11:52 10° ENE 21:17:58 43° N 21:24:02 10° WNW
STARLINK-1130 (DARKSAT) 3.6 21:15:37 10° WNW 21:19:47 89° SSW 21:23:37 12° ESE
STARLINK-1237 3.9 21:16:37 10° WSW 21:20:45 72° NNW 21:24:54 10° ENE
NOSS 2-2 (D) 3.7 21:17:32 10° S 21:20:50 36° ESE 21:24:27 10° NE
CENTAUR R/B 3.8 21:14:23 10° NW 21:21:53 49° NE 21:30:13 10° ESE
CZ-2C R/B 4.1 21:18:18 10° N 21:23:34 43° WNW 21:28:49 10° SW
STARLINK-1084 3.6 21:20:37 10° WNW 21:24:46 84° SSW 21:28:24 13° ESE
ATLAS 3B R/B 4.2 21:18:59 10° NW 21:24:49 30° NNE 21:30:47 10° E
Cosmos 1674 Rocket 3.5 21:20:41 10° S 21:25:02 85° ESE 21:29:30 10° N
STARLINK-1202 4.0 21:21:37 10° WSW 21:25:45 68° NNW 21:29:53 10° ENE
SL-27 R/B 4.1 21:23:57 10° N 21:26:55 24° ENE 21:29:28 12° ESE
Cosmos 1378 Rocket 3.5 21:23:33 10° S 21:27:56 71° E 21:32:19 10° NNE
STARLINK-1098 3.6 21:25:35 10° WNW 21:29:45 79° SSW 21:33:11 15° ESE
Cosmos 1766 3.9 21:26:06 10° N 21:29:55 42° ENE 21:32:47 16° SE
STARLINK-1123 3.6 21:30:33 10° WNW 21:34:43 75° SSW 21:37:56 16° SE
STARLINK-1246 4.2 21:31:38 10° W 21:35:45 63° NNW 21:39:52 10° ENE
IGS 5A 3.8 21:31:57 10° S 21:35:59 64° W 21:40:08 10° NNW
Cosmos 1900 4.4 21:31:56 10° NW 21:36:59 76° NE 21:41:01 16° SE
Cosmos 1943 Rocket 2.7 21:32:03 10° S 21:37:10 39° ESE 21:42:21 10° NE
Cosmos 2297 3.7 21:31:30 10° SSW 21:37:11 82° ESE 21:42:57 10° NNE
NOSS 2-2 (E) 3.1 21:34:29 10° SSW 21:38:01 68° SE 21:42:06 10° NE
STARLINK-1097 3.6 21:35:34 10° WNW 21:39:42 70° SSW 21:42:45 17° SE
STARLINK-1224 4.2 21:36:37 10° W 21:40:44 60° NNW 21:44:50 10° ENE
Landsat 7 4.2 21:36:41 10° S 21:41:22 61° WSW 21:46:07 10° NNW
Cosmos 2082 Rocket 3.5 21:37:04 10° NW 21:42:11 34° WSW 21:47:14 10° S
SeaSat 1 4.3 21:41:36 10° ENE 21:43:38 12° E 21:44:35 12° ESE
STARLINK-1099 3.7 21:40:33 10° WNW 21:44:40 65° SSW 21:47:31 19° SE
SAR-Lupe-2 4.0 21:41:19 10° N 21:44:54 63° WNW 21:48:27 10° SSW
Cosmos 1461 3.4 21:41:02 10° SW 21:45:10 65° NW 21:49:34 10° NE
STARLINK-1225 4.3 21:41:38 10° W 21:45:44 58° NNW 21:49:50 10° ENE
STARLINK-1212 4.2 21:44:20 10° WNW 21:47:17 38° N 21:50:14 10° E
Cosmos 1975 Rocket 3.7 21:44:36 18° SSE 21:47:31 40° E 21:51:39 10° NNE
STARLINK-1105 4.2 21:44:48 10° WNW 21:47:45 38° NNE 21:50:42 10° E
Meteor 1-23 Rocket 4.3 21:42:50 10° SSW 21:48:33 82° WNW 21:54:13 10° N
STARLINK-1247 4.2 21:45:40 10° WNW 21:48:39 39° NNE 21:51:37 10° E
STARLINK-1227 4.2 21:46:10 10° WNW 21:49:08 39° NNE 21:52:05 10° E
BREEZE-M DEB (TANK) 4.1 21:30:15 10° SW 21:49:28 68° SSE 21:54:01 10° ENE
STARLINK-1104 3.7 21:45:32 10° WNW 21:49:38 61° SSW 21:52:18 20° SE
STARLINK-1226 4.2 21:47:02 10° WNW 21:50:00 39° NNE 21:52:58 10° E
BREEZE-M DEB (TANK) 3.1 21:45:52 10° W 21:50:39 77° N 21:54:09 10° E
STARLINK-1230 4.4 21:46:38 10° W 21:50:44 56° NNW 21:54:48 10° ENE
STARLINK-1215 4.2 21:47:55 10° WNW 21:50:54 39° NNE 21:53:53 10° E
STARLINK-1217 4.1 21:49:45 10° WNW 21:52:43 40° NNE 21:55:42 10° E
Cosmos 2369 Rocket 2.7 21:49:04 15° S 21:53:21 39° ESE 21:58:33 10° NE
STARLINK-1229 4.1 21:50:39 10° WNW 21:53:38 40° NNE 21:56:38 10° E
STARLINK-1270 4.1 21:51:33 10° WNW 21:54:32 40° NNE 21:57:32 10° E
STARLINK-1144 3.8 21:50:31 10° WNW 21:54:36 57° SSW 21:57:05 22° SE
STARLINK-1243 4.4 21:51:40 10° W 21:55:44 54° NNW 21:59:48 10° ENE
STARLINK-1189 4.1 21:53:20 10° WNW 21:56:20 41° NNE 21:59:19 10° E
STARLINK-1188 4.1 21:54:15 10° WNW 21:57:15 41° NNE 22:00:15 10° E
SPOT 5 3.1 21:53:31 16° SSE 21:57:44 83° WSW 22:03:08 10° NNW
STARLINK-1187 3.9 21:55:22 10° WNW 21:58:21 43° NNE 22:01:14 11° E
ATLAS CENTAUR R/B 3.5 21:59:35 12° ESE 21:59:35 12° ESE 22:00:52 10° E
STARLINK-1103 3.9 21:55:30 10° WNW 21:59:33 53° SW 22:01:51 23° SSE
STARLINK-1191 4.0 21:56:42 10° WNW 21:59:41 42° NNE 22:02:39 10° E
STARLINK-1221 4.0 21:57:40 10° WNW 22:00:38 42° NNE 22:03:34 10° E
STARLINK-1222 4.0 21:58:30 10° WNW 22:01:30 42° NNE 22:04:23 11° E
STARLINK-1214 4.0 21:59:24 10° WNW 22:02:24 43° NNE 22:05:15 11° E
NOSS 2-2 (C) 3.1 21:59:04 10° SW 22:02:38 88° NW 22:06:42 10° NE
EXPRESS MD2 3.6 22:00:07 10° WSW 22:03:33 80° SSE 22:10:30 10° ENE
ERS-1 Rocket 3.3 21:59:40 15° S 22:03:44 63° WSW 22:08:46 10° NNW
STARLINK-1101 4.0 22:00:30 10° WNW 22:04:30 49° SW 22:06:38 25° SSE
Okean 2 3.4 22:02:00 20° S 22:04:48 67° E 22:08:57 10° NNE
Meteor 1-22 Rocket 4.3 21:58:58 10° N 22:04:55 87° E 22:09:05 19° SSE
Cosmos 2026 Rocket 4.2 22:00:23 17° SSE 22:05:13 59° E 22:11:27 10° NNE
BREEZE M DEB (TANK) 2.1 22:01:45 10° WSW 22:06:16 75° SSE 22:08:28 10° ENE
ATLAS 2AS CENTAUR R/B 3.6 22:00:30 14° S 22:06:26 36° ESE 22:13:30 10° NE
STARLINK-1228 3.7 22:04:49 10° WNW 22:08:17 56° NNE 22:11:08 14° E
Cosmos 1953 4.2 22:05:54 10° NNE 22:08:46 19° ENE 22:10:41 14° ESE
NOSS 3-2 (A) 4.1 22:01:22 10° NW 22:08:51 81° SW 22:15:11 19° SSE
STARLINK-1102 4.1 22:05:30 10° WNW 22:09:28 45° SW 22:11:26 26° SSE
Cosmos 1805 3.7 22:05:55 10° NNW 22:09:47 59° W 22:12:24 19° S
Cosmos 1470 3.6 22:06:28 10° N 22:10:05 37° ENE 22:11:51 23° SE
STARLINK-1235 3.6 22:07:34 10° WNW 22:10:45 53° NNE 22:13:12 16° E
Okean 1 Rocket 4.2 22:07:10 10° NNW 22:11:20 39° W 22:15:06 12° SSW
Resurs 01 Rocket 4.3 22:09:48 10° WSW 22:11:53 13° W 22:13:59 10° WNW
Cosmos 968 Rocket 3.8 22:09:15 10° NNW 22:14:20 55° ENE 22:17:31 22° SE
STARLINK-1111 4.2 22:10:30 10° WNW 22:14:25 42° SW 22:16:12 27° SSE
Cosmos 1455 Rocket 3.0 22:12:42 10° N 22:17:04 74° E 22:19:25 26° SSE
STARLINK-1073 4.3 22:15:31 10° WNW 22:19:23 39° SW 22:20:59 27° S
USA 238 DEB 3.9 22:13:33 10° NW 22:20:44 71° SW 22:25:51 22° SSE
ATLAS 5 CENTAUR R/B 3.1 22:21:46 21° ESE 22:21:46 21° ESE 22:23:14 10° E
USA 238 3.9 22:13:39 10° NW 22:20:50 72° SW 22:25:58 22° SSE
SL-8 R/B 4.3 22:17:38 10° W 22:22:09 41° SSW 22:24:13 26° SSE
Abrixas rocket 3.8 22:21:29 10° W 22:23:18 18° SW 22:23:18 18° SW
Cosmos 1758 3.9 22:19:41 10° N 22:23:38 46° ENE 22:25:25 27° SE
STARLINK-1121 4.4 22:20:31 10° WNW 22:24:20 36° SW 22:25:46 27° S
SL-4 R/B 2.7 22:20:13 10° SW 22:24:42 42° SE 22:29:17 10° ENE
Cosmos 1842 3.2 22:24:08 25° S 22:26:19 88° ESE 22:30:14 10° N
Terra 2.1 22:23:14 21° S 22:26:20 61° WSW 22:31:05 10° NNW
Meteor 2-13 Rocket 4.4 22:23:31 19° S 22:27:59 75° E 22:34:10 10° NNE
STARLINK-1234 3.2 22:25:19 10° WNW 22:28:35 68° NNE 22:30:16 25° E
Cosmos 1503 Rocket 4.3 22:29:14 10° NNW 22:34:30 60° ENE 22:37:35 25° SE
STARLINK-1209 3.0 22:31:28 10° WNW 22:34:47 77° NNE 22:36:13 31° ESE
Cosmos 1733 4.4 22:39:00 10° NNW 22:42:31 36° W 22:44:30 21° SW
Cosmos 2263 4.2 22:39:18 21° S 22:43:06 67° ESE 22:48:42 10° NNE
Cosmos 1536 Rocket 3.9 22:45:43 33° SSE 22:47:18 50° E 22:51:32 10° NNE
STARLINK-1201 4.4 22:44:47 10° WNW 22:48:50 51° NNE 22:52:54 10° E
JB-3 4.5 22:46:11 10° N 22:50:22 78° WNW 22:52:30 27° SSW
Cosmos 1271 Rocket 2.6 22:49:29 38° S 22:50:53 75° E 22:54:50 10° NNE
Cosmos 1242 Rocket 2.6 22:49:25 32° SSW 22:50:59 74° W 22:54:42 10° N
STARLINK-60 2.7 22:52:20 37° SW 22:53:24 69° SSE 22:56:35 10° ENE
Cosmos 1544 Rocket 3.7 22:49:31 10° NNW 22:53:50 65° W 22:55:47 31° SSW
STARLINK-1206 4.4 22:49:47 10° WNW 22:53:51 52° NNE 22:57:55 10° E
Cosmos 1354 Rocket 4.1 22:48:32 10° NNW 22:53:52 75° ENE 22:56:35 30° SSE
Meteor 1-21 4.2 22:50:09 21° SSW 22:54:01 81° WNW 22:59:40 10° N
COSMOS 2455 3.4 22:52:50 28° SSE 22:55:17 40° ESE 23:00:52 10° NE
Spot 4 3.9 22:53:29 31° SSE 22:55:48 72° ENE 23:00:39 10° N
Cosmos 1486 Rocket 4.3 22:50:44 10° NNW 22:55:55 57° WSW 22:58:32 28° S
Cosmos 1833 4.1 22:52:36 10° NNW 22:58:17 84° WSW 23:01:10 30° SSE
STARLINK-1205 4.3 22:54:45 10° WNW 22:58:50 54° NNE 23:02:55 10° E
Cosmos 2297 Rocket 4.4 22:56:20 10° N 23:00:26 20° NE 23:04:30 10° E
USA 215 3.6 22:53:58 10° ESE 23:00:27 67° NNE 23:06:57 10° NW
Cosmos 1707 2.6 22:59:44 41° S 23:00:59 78° E 23:04:53 10° NNE
SL-27 R/B 3.9 22:58:55 10° NW 23:02:02 28° WSW 23:03:01 24° SW
STARLINK-1218 4.2 22:59:45 10° WNW 23:03:51 56° NNE 23:07:54 10° E
Cosmos 1174 4.1 23:06:36 36° ESE 23:06:36 36° ESE 23:09:44 10° NE
Cosmos 1726 2.3 23:02:41 10° N 23:06:23 62° ENE 23:07:20 44° SE
STARLINK-1254 4.2 23:04:44 10° WNW 23:08:50 58° NNE 23:12:41 11° E
ALOS 2 3.2 23:07:47 30° SE 23:09:35 48° ENE 23:13:49 10° N
COSMOS 2487 2.6 23:06:22 10° NNW 23:09:49 63° ENE 23:10:32 48° ESE
CENTAUR R/B 3.3 23:05:08 10° NW 23:13:05 64° WSW 23:18:17 26° SSE
STARLINK-1231 4.1 23:09:42 10° WNW 23:13:49 60° NNE 23:17:26 13° E
Meteor 1-16 Rocket 4.2 23:09:47 10° N 23:15:19 73° ENE 23:17:49 33° SSE
Cosmos 1867 3.6 23:10:53 10° NW 23:16:20 72° SW 23:18:45 34° SSE
ATLAS 3B R/B 2.7 23:09:39 10° NW 23:16:28 81° NE 23:21:09 23° SE
EO 1 Del DPAF 3.3 23:14:25 10° N 23:18:12 72° WNW 23:19:30 38° SSW
NOSS 3-2 (C) 4.4 23:11:09 10° NW 23:18:28 53° WSW 23:23:02 27° S
STARLINK-1232 4.0 23:14:42 10° WNW 23:18:50 63° NNE 23:22:15 14° E
Cosmos 1992 Rocket 4.0 23:16:14 25° SSW 23:19:18 82° WNW 23:24:33 10° NNE
Cosmos 1606 Rocket 4.3 23:15:57 10° N 23:20:05 42° ENE 23:21:36 30° ESE
Cosmos 1943 Rocket 3.4 23:15:44 10° WSW 23:20:56 39° NW 23:26:12 10° NNE
SeaSat 1 2.4 23:16:54 10° NNE 23:21:52 79° ESE 23:24:20 30° SSW
STARLINK-1212 3.0 23:20:09 10° WNW 23:22:54 57° WSW 23:22:54 57° WSW
STARLINK-29 3.5 23:24:03 45° E 23:24:03 45° E 23:26:29 10° ENE
STARLINK-1105 3.1 23:20:38 10° WNW 23:23:20 56° WSW 23:23:20 56° WSW
STARLINK-1208 3.9 23:19:39 10° WNW 23:23:48 66° NNE 23:27:00 16° E
STARLINK-1247 3.1 23:21:30 10° WNW 23:24:14 55° WSW 23:24:14 55° WSW
STARLINK-1227 3.2 23:22:00 10° WNW 23:24:39 53° WSW 23:24:39 53° WSW
STARLINK-1226 3.2 23:22:52 10° WNW 23:25:31 52° WSW 23:25:31 52° WSW
ATLAS CENTAUR R/B 3.4 23:25:05 10° NNW 23:26:37 18° NNE 23:28:44 10° ENE
STARLINK-1215 3.2 23:23:45 10° WNW 23:26:23 51° WSW 23:26:23 51° WSW
NOSS 3-4 (A) 3.3 23:23:52 17° SW 23:28:33 86° SE 23:34:58 10° NE
STARLINK-1217 3.3 23:25:35 10° WNW 23:28:08 48° WSW 23:28:08 48° WSW
NOSS 3-4 (C) 3.3 23:24:01 18° SW 23:28:39 85° SE 23:35:04 10° NE
STARLINK-1271 3.9 23:24:40 10° WNW 23:28:49 69° NNE 23:31:49 18° ESE
STARLINK-1229 3.4 23:26:29 10° WNW 23:29:00 47° WSW 23:29:00 47° WSW
RESURS DK-1 3.2 23:29:48 32° ESE 23:30:02 32° ESE 23:33:45 10° NE
STARLINK-1270 3.4 23:27:23 10° WNW 23:29:53 46° WSW 23:29:53 46° WSW
STARLINK-1189 3.5 23:29:11 10° WNW 23:31:36 43° WSW 23:31:36 43° WSW
Meteor 2-10 4.2 23:27:43 10° NNW 23:32:41 59° W 23:34:44 34° SSW
STARLINK-1188 3.6 23:30:06 10° WNW 23:32:29 42° WSW 23:32:29 42° WSW
Cosmos 2084 4.4 23:33:36 32° SE 23:33:44 32° ESE 23:37:42 10° ENE
STARLINK-1154 3.8 23:29:39 10° WNW 23:33:48 72° NNE 23:36:35 20° ESE
Cosmos 2315 Rocket 4.0 23:27:38 10° N 23:33:51 73° ENE 23:36:59 31° SSE
STARLINK-1187 3.9 23:31:14 10° WNW 23:33:23 35° W 23:33:23 35° W
BREEZE-M R/B 4.5 23:31:45 27° S 23:34:15 35° SSE 23:38:23 10° E
STARLINK-1191 3.7 23:32:33 10° WNW 23:34:47 38° W 23:34:47 38° W
Cosmos 1626 3.8 23:36:00 20° E 23:36:28 21° E 23:39:19 10° NE
STARLINK-1221 3.8 23:33:30 10° WNW 23:35:42 37° W 23:35:42 37° W
Cosmos 1340 Rocket 3.0 23:33:02 10° NNW 23:37:04 63° W 23:38:06 45° SSW
STARLINK-1222 3.8 23:34:21 10° WNW 23:36:30 36° W 23:36:30 36° W
Cosmos 2369 Rocket 3.4 23:32:02 10° WSW 23:37:22 41° NW 23:42:42 10° NNE
ATLAS CENTAUR R/B 1.3 23:35:43 35° SW 23:37:27 88° SE 23:41:35 10° NE
Cosmos 2227 Rocket 3.9 23:32:52 10° NNW 23:37:45 28° NE 23:42:36 10° ESE
STARLINK-1214 3.9 23:35:15 10° WNW 23:37:23 35° W 23:37:23 35° W
STARLINK-1197 3.7 23:34:36 10° WNW 23:38:46 76° NNE 23:41:21 22° ESE
S3M 4.4 23:33:38 10° NNW 23:39:38 55° W 23:42:52 27° SSW
Cosmos 1908 3.2 23:37:52 10° N 23:41:42 74° ENE 23:42:29 53° SSE
Cosmos 1025 Rocket 4.0 23:39:50 24° SW 23:41:55 39° WNW 23:45:59 10° N
STARLINK-1198 3.6 23:39:35 10° WNW 23:43:44 80° NNE 23:46:07 25° ESE
Thor Agena Rocket 4.3 23:39:16 10° N 23:44:22 49° WNW 23:47:47 20° SW
Aureole 3 2.7 23:41:16 10° NNW 23:44:28 67° W 23:44:31 67° WSW
Cosmos 1953 3.1 23:41:36 10° NNW 23:45:23 42° W 23:46:22 34° SW
STARLINK-1228 4.3 23:42:12 10° WNW 23:44:34 30° WSW 23:44:34 30° WSW
STARLINK-1199 3.6 23:44:35 10° WNW 23:48:45 84° NNE 23:50:55 27° ESE
SL-4 R/B 2.9 23:50:08 22° NW 23:50:08 22° NW 23:51:12 10° NNW
Cosmos 1656 Rocket 4.2 23:46:09 17° SW 23:50:23 57° WNW 23:55:53 10° NNE
Landsat 4 4.3 23:47:06 10° NNE 23:50:37 39° E 23:51:00 38° ESE
Nimbus 7 Rocket 4.4 23:44:42 10° NNE 23:50:49 85° WNW 23:54:03 30° SSW
KORONAS-FOTON 3.7 23:52:25 57° S 23:53:07 82° E 23:56:59 10° NNE
STARLINK-1210 3.5 23:49:33 10° WNW 23:53:43 88° NNE 23:55:41 30° ESE
